Hourly Data Report for September 01, 2020

SHEARWATER RCS
NOVA SCOTIA
Current Station Operator: ECCC - MSC

44°37'47.000" N
63°30'48.000" W
24.00 m
8205092
71264
AAW

Download Data

Hourly Data (September 2020)
Hourly Data Report for September 1, 2020
TIME Temp Definition
°C
Dew Point Definition
°C
Rel Hum Definition
%
Wind Dir Definition
10's deg

Wind Spd Definition
km/h
Visibility Definition
km
Stn Press Definition
kPa
Hmdx Definition


Wind Chill Definition


Weather Definition


00:00 11.1 8.3 82 30 4   101.88     LegendNANA
01:00 10.9 7.8 81 32 4   101.90     LegendNANA
02:00 11.2 7.7 79 32 10   101.93     LegendNANA
03:00 10.6 7.4 80 30 7   101.98     LegendNANA
04:00 8.9 6.3 84 2 4   101.99     LegendNANA
05:00 8.3 6.8 90 9 4   102.06     LegendNANA
06:00 8.4 7.1 91   0   102.13     LegendNANA
07:00 12.6 9.4 81   0   102.23     LegendNANA
08:00 13.8 9.7 76 21 3   102.26     LegendNANA
09:00 15.1 9.7 70 21 4   102.29     LegendNANA
10:00 17.3 10.6 65 17 8   102.27     LegendNANA
11:00 17.8 10.7 63 16 10   102.25     LegendNANA
12:00 17.9 10.8 63 16 13   102.24     LegendNANA
13:00 18.1 9.1 56 15 14   102.23     LegendNANA
14:00 17.5 9.9 61 15 16   102.19     LegendNANA
15:00 18.4 10.5 60 16 16   102.17     LegendNANA
16:00 18.5 10.2 58 16 13   102.15     LegendNANA
17:00 18.4 10.0 58 16 11   102.18     LegendNANA
18:00 17.2 9.6 61 18 8   102.19     LegendNANA
19:00 15.3 9.7 69 19 4   102.21     LegendNANA
20:00 13.9 10.3 79 24 3   102.25     LegendNANA
21:00 13.2 10.5 84 22 3   102.27     LegendNANA
22:00 11.7 10.1 90   0   102.28     LegendNANA
23:00 11.2 9.8 91 14 3   102.26     LegendNANA

Notes on Data Quality.

Legend

  • E = Estimated
  • M = Missing
  • NA = Not Available*
  • [empty] = Indicates an unobserved value
Date modified: